When you browse on this site, cookies collect data to enhance your experience and personalize the content and advertising you see.
Visit our Privacy Policy to learn more. By continuing to use the site, you agree to this use of cookies and data.
  • In Netherlands
  • List of Countries
  • For 7 days
  • Water Temperature
  • Satellite Maps
  • Weather Map
  • Weather Widgets
  • user-avatar
    Login

    Hourly Weather Hrazdan

    Today, 21 March, Thursday

    Time Temperature Precipitation Wind Pressure Humidity
    00:00 +1°C° 0.2 mm 1 mps 611 mmHg 89%
    01:00 +1°C° 0.1 mm 1 mps 611 mmHg 90%
    02:00 0°C° 0.1 mm 1 mps 611 mmHg 91%
    03:00 -2°C° 0 mm 3 mps 610 mmHg 93%
    04:00 -3°C° 0 mm 2 mps 610 mmHg 91%
    05:00 -3°C° 0 mm 2 mps 610 mmHg 90%
    06:00 -2°C° 0 mm 1 mps 610 mmHg 89%
    07:00 0°C° 0 mm 1 mps 610 mmHg 88%
    08:00 0°C° 0 mm 0 mps 611 mmHg 87%
    09:00 +2°C° 0 mm 0 mps 611 mmHg 85%
    10:00 +2°C° 0 mm 0 mps 611 mmHg 84%
    11:00 +3°C° 0 mm 0 mps 611 mmHg 83%
    12:00 +3°C° 0 mm 0 mps 611 mmHg 83%
    13:00 +5°C° 0 mm 1 mps 611 mmHg 81%
    14:00 +5°C° 0 mm 1 mps 611 mmHg 79%
    15:00 +5°C° 0 mm 1 mps 611 mmHg 78%
    16:00 +4°C° 0 mm 1 mps 611 mmHg 78%
    17:00 +4°C° 0 mm 1 mps 610 mmHg 77%
    18:00 +3°C° 0 mm 1 mps 610 mmHg 77%
    19:00 +2°C° 0 mm 1 mps 610 mmHg 79%
    20:00 +1°C° 0 mm 1 mps 611 mmHg 80%
    21:00 +1°C° 0 mm 1 mps 611 mmHg 82%
    22:00 0°C° 0 mm 1 mps 611 mmHg 83%
    23:00 0°C° 0 mm 1 mps 611 mmHg 84%

    Tomorrow, 22 March, Friday

    Time Temperature Precipitation Wind Pressure Humidity
    00:00 -1°C° 0 mm 1 mps 611 mmHg 85%
    01:00 -1°C° 0 mm 1 mps 611 mmHg 85%
    02:00 -2°C° 0 mm 0 mps 611 mmHg 85%
    03:00 -2°C° 0 mm 0 mps 611 mmHg 85%
    04:00 -3°C° 0 mm 0 mps 611 mmHg 85%
    05:00 -3°C° 0 mm 0 mps 611 mmHg 85%
    06:00 -3°C° 0 mm 0 mps 611 mmHg 85%
    07:00 -1°C° 0 mm 1 mps 611 mmHg 82%
    08:00 0°C° 0 mm 1 mps 611 mmHg 79%
    09:00 +2°C° 0 mm 1 mps 612 mmHg 75%
    10:00 +2°C° 0 mm 1 mps 612 mmHg 73%
    11:00 +3°C° 0 mm 1 mps 611 mmHg 71%
    12:00 +3°C° 0 mm 2 mps 611 mmHg 68%
    13:00 +3°C° 0 mm 2 mps 611 mmHg 66%
    14:00 +3°C° 0 mm 2 mps 611 mmHg 64%
    15:00 +3°C° 0 mm 2 mps 610 mmHg 61%
    16:00 +2°C° 0 mm 2 mps 610 mmHg 63%
    17:00 +2°C° 0 mm 1 mps 610 mmHg 65%
    18:00 +1°C° 0 mm 1 mps 609 mmHg 66%
    19:00 +1°C° 0 mm 1 mps 610 mmHg 68%
    20:00 0°C° 0 mm 1 mps 610 mmHg 69%
    21:00 -1°C° 0 mm 1 mps 610 mmHg 71%
    22:00 -1°C° 0 mm 1 mps 610 mmHg 70%
    23:00 -1°C° 0 mm 1 mps 610 mmHg 69%

    Day after tomorrow, 23 March, Saturday

    Time Temperature Precipitation Wind Pressure Humidity
    00:00 -2°C° 0 mm 1 mps 610 mmHg 68%
    01:00 -2°C° 0 mm 1 mps 610 mmHg 69%
    02:00 -2°C° 0 mm 1 mps 610 mmHg 69%
    03:00 -2°C° 0 mm 1 mps 610 mmHg 70%
    04:00 -2°C° 0 mm 1 mps 609 mmHg 71%
    05:00 -5°C° 0 mm 2 mps 609 mmHg 72%
    06:00 -5°C° 0 mm 2 mps 609 mmHg 73%
    07:00 -4°C° 0 mm 2 mps 609 mmHg 70%
    08:00 -2°C° 0 mm 2 mps 610 mmHg 66%
    09:00 -1°C° 0 mm 3 mps 610 mmHg 63%
    10:00 0°C° 0 mm 3 mps 610 mmHg 59%
    11:00 +1°C° 0 mm 3 mps 609 mmHg 55%
    12:00 +2°C° 0 mm 3 mps 609 mmHg 51%
    13:00 +2°C° 0 mm 3 mps 609 mmHg 51%
    14:00 +2°C° 0 mm 3 mps 608 mmHg 51%
    15:00 +2°C° 0 mm 3 mps 608 mmHg 51%
    16:00 +1°C° 0 mm 3 mps 607 mmHg 54%
    17:00 +1°C° 0 mm 2 mps 607 mmHg 58%
    18:00 -1°C° 0 mm 2 mps 607 mmHg 62%
    19:00 +1°C° 0 mm 1 mps 607 mmHg 64%
    20:00 0°C° 0 mm 1 mps 607 mmHg 65%
    21:00 0°C° 0 mm 1 mps 607 mmHg 67%
    22:00 0°C° 0 mm 1 mps 607 mmHg 68%
    23:00 -1°C° 0 mm 1 mps 606 mmHg 68%

    24 March, Sunday

    Time Temperature Precipitation Wind Pressure Humidity
    00:00 -1°C° 0 mm 1 mps 606 mmHg 69%
    01:00 -1°C° 0.1 mm 1 mps 606 mmHg 69%
    02:00 -1°C° 0.1 mm 1 mps 605 mmHg 69%
    03:00 -1°C° 0.1 mm 1 mps 605 mmHg 69%
    04:00 -1°C° 0.1 mm 1 mps 605 mmHg 72%
    05:00 -1°C° 0.1 mm 1 mps 605 mmHg 74%
    06:00 -1°C° 0.1 mm 1 mps 604 mmHg 77%
    07:00 0°C° 0.1 mm 1 mps 604 mmHg 74%
    08:00 -1°C° 0.1 mm 2 mps 605 mmHg 72%
    09:00 +1°C° 0.1 mm 2 mps 605 mmHg 70%
    10:00 -1°C° 0.8 mm 2 mps 605 mmHg 75%
    11:00 -1°C° 0.8 mm 2 mps 604 mmHg 80%
    12:00 +1°C° 0.8 mm 1 mps 604 mmHg 85%
    13:00 -1°C° 1.1 mm 2 mps 604 mmHg 86%
    14:00 -2°C° 1.1 mm 2 mps 603 mmHg 88%
    15:00 -2°C° 1.1 mm 2 mps 603 mmHg 89%
    16:00 -3°C° 1.3 mm 2 mps 603 mmHg 90%
    17:00 -3°C° 1.3 mm 2 mps 603 mmHg 90%
    18:00 -4°C° 1.3 mm 2 mps 603 mmHg 91%
    19:00 -4°C° 0.7 mm 2 mps 604 mmHg 91%
    20:00 -4°C° 0.7 mm 2 mps 604 mmHg 91%
    21:00 -5°C° 0.7 mm 2 mps 604 mmHg 91%
    22:00 -5°C° 0.4 mm 2 mps 604 mmHg 91%
    23:00 -5°C° 0.4 mm 2 mps 604 mmHg 91%

    25 March, Monday

    Time Temperature Precipitation Wind Pressure Humidity
    00:00 -5°C° 0.4 mm 2 mps 604 mmHg 91%
    01:00 -5°C° 0.4 mm 2 mps 604 mmHg 91%
    02:00 -5°C° 0.4 mm 2 mps 604 mmHg 91%
    03:00 -6°C° 0.4 mm 2 mps 604 mmHg 92%
    04:00 -6°C° 0.4 mm 2 mps 605 mmHg 91%
    05:00 -6°C° 0.4 mm 2 mps 605 mmHg 91%
    06:00 -6°C° 0.4 mm 2 mps 605 mmHg 91%
    07:00 -5°C° 0.3 mm 2 mps 606 mmHg 89%
    08:00 -4°C° 0.3 mm 2 mps 606 mmHg 88%
    09:00 -4°C° 0.3 mm 2 mps 607 mmHg 86%
    10:00 -3°C° 0.2 mm 2 mps 607 mmHg 85%
    11:00 -2°C° 0.2 mm 2 mps 607 mmHg 84%
    12:00 -2°C° 0.2 mm 2 mps 607 mmHg 84%
    13:00 -1°C° 0.1 mm 2 mps 607 mmHg 83%
    14:00 -1°C° 0.1 mm 2 mps 606 mmHg 82%
    15:00 -1°C° 0.1 mm 2 mps 606 mmHg 81%
    16:00 -1°C° 0.1 mm 2 mps 606 mmHg 82%
    17:00 -2°C° 0.1 mm 2 mps 606 mmHg 84%
    18:00 -2°C° 0.1 mm 3 mps 606 mmHg 86%
    19:00 -4°C° 0 mm 3 mps 606 mmHg 87%
    20:00 -5°C° 0 mm 3 mps 606 mmHg 88%
    21:00 -6°C° 0 mm 3 mps 606 mmHg 89%
    22:00 -6°C° 0 mm 3 mps 606 mmHg 89%
    23:00 -6°C° 0 mm 3 mps 606 mmHg 89%

    26 March, Tuesday

    Time Temperature Precipitation Wind Pressure Humidity
    00:00 -7°C° 0 mm 3 mps 606 mmHg 88%
    01:00 -6°C° 0 mm 2 mps 606 mmHg 88%
    02:00 -6°C° 0 mm 2 mps 606 mmHg 88%
    03:00 -6°C° 0 mm 2 mps 606 mmHg 88%
    04:00 -6°C° 0 mm 2 mps 606 mmHg 88%
    05:00 -6°C° 0 mm 2 mps 606 mmHg 88%
    06:00 -6°C° 0 mm 2 mps 606 mmHg 88%
    07:00 -5°C° 0 mm 2 mps 606 mmHg 86%
    08:00 -3°C° 0 mm 2 mps 607 mmHg 83%
    09:00 -2°C° 0 mm 2 mps 607 mmHg 81%
    10:00 -1°C° 0 mm 2 mps 607 mmHg 81%
    11:00 -1°C° 0 mm 2 mps 607 mmHg 81%
    12:00 +1°C° 0 mm 2 mps 607 mmHg 81%
    13:00 +1°C° 0.1 mm 2 mps 607 mmHg 81%
    14:00 +2°C° 0.1 mm 2 mps 606 mmHg 81%
    15:00 +3°C° 0.1 mm 1 mps 606 mmHg 80%
    16:00 +2°C° 0.1 mm 1 mps 606 mmHg 82%
    17:00 +2°C° 0.1 mm 1 mps 606 mmHg 84%
    18:00 +1°C° 0.1 mm 1 mps 606 mmHg 86%
    19:00 0°C° 0 mm 1 mps 607 mmHg 87%
    20:00 0°C° 0 mm 1 mps 607 mmHg 88%
    21:00 -1°C° 0 mm 1 mps 607 mmHg 89%
    22:00 -1°C° 0 mm 1 mps 607 mmHg 88%
    23:00 -2°C° 0 mm 1 mps 607 mmHg 88%
    Show more